Volver al catálogo

COSMOS 2447

GLONASS

ActivoNavegaciónMEO
NORAD 33466·PAYLOAD·🇷🇺 Russia

Lanzado Dec 25, 2008 desde Baikonur Cosmodrome

Loading…

Próximos Pases (próximas 24 horas)

TLE

ActualizadoSource: Space-Track

Época: Sep 13, 2026, 22:51 UTC

1 33466U 08067A   26256.95248289 -.00000015  00000-0  00000-0 0  9998
2 33466  64.8779  66.3016 0006465 259.7136  97.5255  2.13107608137856

Sigue COSMOS 2447 en tiempo real con AllMySat

Download on the App Store